Location: Rio de Janeiro
(22.9068°S, 43.1729°W)
Time: 20:09:35
(UTC-03:00)

BlueWalker 3 - Visible Passes

Search period start: 13 March 2026 00:00
Search period end: 23 March 2026 00:00
Orbit: 451 x 458 km, 53.2° (Epoch: 13 March)

Date Brightness Start Highest point End Pass type
(mag) Time Alt. Az. Time Alt. Az. Time Alt. Az.
13 Mar 3.8 19:56:27 10° WSW 19:59:21 23° WNW 19:59:36 23° NW visible
14 Mar 3.2 19:19:56 10° WSW 19:23:14 34° NW 19:25:47 15° N visible
15 Mar 2.5 18:43:34 10° SW 18:47:06 54° NW 18:50:36 10° NNE visible
18 Mar 5.3 18:35:15 10° WNW 18:35:35 10° WNW 18:35:55 10° NW visible
